Weather History for Wichita Jabara, KS

Change the Weather History Date:

Thursday, September 26, 2013

  Actual Average (KICT) Record (KICT)
Temperature  
Mean Temperature 76 °F 66 °F  
Max Temperature 91 °F 78 °F 97 °F (1904)
Min Temperature 62 °F 55 °F 36 °F (1942)
Degree Days  
Heating Degree Days 0 3  
Month to date heating degree days 27  
Since 1 July heating degree days 28  
Cooling Degree Days 12 4  
Month to date cooling degree days 205  
Year to date cooling degree days 1632  
Growing Degree Days 26 (Base 50)    
Moisture  
Dew Point 58 °F    
Average Humidity 55    
Maximum Humidity 80    
Minimum Humidity 32    
Precipitation  
Precipitation 0.00 in 0.11 in 5.78 in (1999)
Month to date precipitation 2.76  
Year to date precipitation 26.85  
Snow  
Snow 0.00 in 0.00 in T in (1942)
Month to date snowfall 0.0  
Since 1 July snowfall 0.0  
Since 1 September snowfall 0.0  
Snow Depth -    
Sea Level Pressure  
Sea Level Pressure 29.76 in    
Wind  
Wind Speed 13 mph (SSE)    
Max Wind Speed 24 mph    
Max Gust Speed 34 mph    
Visibility 10 miles    
Events      
T = Trace of Precipitation, MM = Missing Value Source: NWS Daily Summary

Daily Weather History Graph

Daily Weather History Graph

Search for Another Location

Airport:

Trip Planner

Search our weather history database for the weather conditions in past years. The results will help you decide how hot, cold, wet, or windy it might be!

Date:

Astronomy

Sep. 26, 2013 Rise Set
Actual Time 7:20 AM CDT 7:19 PM CDT
Civil Twilight 6:54 AM CDT 7:45 PM CDT
Nautical Twilight 6:23 AM CDT 8:15 PM CDT
Astronomical Twilight 5:52 AM CDT 8:46 PM CDT
Moon No Moon Rise 2:07 PM CDT (9/26)
Length of Visible Light 12h 51m
Length of Day
11h 58m
Waning Gibbous, 54% of the Moon is Illuminated
Sep 26
Waning Gibbous
Sep 26
Last Quarter
Oct 4
New
Oct 11
First Quarter
Oct 18
Full

Hourly Weather History & Observations

Time (CDT) Temp. Heat Index Dew Point Humidity Pressure Visibility Wind Dir Wind Speed Gust Speed Precip Events Conditions
12:54 AM 66.9 °F - 57.0 °F 70% 29.75 in 10.0 mi SE 6.9 mph - N/A   Clear
1:54 AM 66.9 °F - 57.0 °F 70% 29.74 in 10.0 mi SSE 10.4 mph - N/A   Clear
2:54 AM 66.0 °F - 57.0 °F 73% 29.74 in 10.0 mi SE 10.4 mph - N/A   Clear
3:54 AM 64.9 °F - 55.9 °F 73% 29.74 in 10.0 mi SSE 11.5 mph - N/A   Clear
4:54 AM 63.0 °F - 55.9 °F 78% 29.75 in 10.0 mi SE 10.4 mph - N/A   Clear
5:54 AM 62.1 °F - 55.9 °F 80% 29.75 in 10.0 mi SE 8.1 mph - N/A   Clear
6:54 AM 64.0 °F - 55.0 °F 73% 29.76 in 10.0 mi SSE 12.7 mph - N/A   Clear
7:54 AM 66.0 °F - 55.0 °F 68% 29.78 in 10.0 mi SSE 15.0 mph - N/A   Clear
8:54 AM 70.0 °F - 55.0 °F 59% 29.79 in 10.0 mi SSE 20.7 mph 25.3 mph N/A   Clear
9:54 AM 75.0 °F - 55.0 °F 50% 29.79 in 10.0 mi North - - N/A   Clear
10:54 AM 78.1 °F - 55.9 °F 46% 29.79 in 10.0 mi South 20.7 mph 26.5 mph N/A   Clear
12:54 PM 86.0 °F 85.4 °F 59.0 °F 40% 29.77 in 10.0 mi SSE 18.4 mph 26.5 mph N/A   Clear
1:54 PM 90.0 °F 89.1 °F 59.0 °F 35% 29.75 in 10.0 mi South 17.3 mph 28.8 mph N/A   Clear
2:54 PM 91.0 °F 90.2 °F 59.0 °F 34% 29.73 in 10.0 mi South 23.0 mph 33.4 mph N/A   Clear
3:54 PM 91.0 °F 90.0 °F 57.9 °F 33% 29.72 in 10.0 mi SSE 21.9 mph 34.5 mph N/A   Clear
4:54 PM 91.0 °F 89.7 °F 57.0 °F 32% 29.72 in 10.0 mi South 24.2 mph 34.5 mph N/A   Clear
5:54 PM 89.1 °F 88.0 °F 57.9 °F 35% 29.73 in 10.0 mi SSE 18.4 mph 28.8 mph N/A   Clear
6:54 PM 84.9 °F 84.8 °F 60.1 °F 43% 29.73 in 10.0 mi SSE 17.3 mph 24.2 mph N/A   Clear
7:54 PM 82.0 °F 82.1 °F 59.0 °F 45% 29.74 in 10.0 mi SSE 16.1 mph - N/A   Clear
8:54 PM 78.1 °F - 60.1 °F 54% 29.76 in 10.0 mi SE 13.8 mph - N/A   Clear
9:54 PM 77.0 °F - 61.0 °F 58% 29.78 in 10.0 mi SSE 16.1 mph - N/A   Clear
10:54 PM 75.9 °F - 60.1 °F 58% 29.79 in 10.0 mi SSE 17.3 mph 25.3 mph N/A   Clear
11:54 PM 75.9 °F - 57.9 °F 54% 29.79 in 10.0 mi SSE 15.0 mph 23.0 mph N/A   Clear